San Luis Potosi, Mexico

10:33 PM CST on November 23, 2017 (GMT -0600)
Ponciano Arriaga International

Weather History for MMSP - August, 2013

Change the Weather History Date:

Friday, August 16, 2013

  Actual Average Record
Temperature  
Mean Temperature 64 °F -  
Max Temperature 84 °F 77 °F 86 °F (2017)
Min Temperature 45 °F 56 °F 45 °F (2013)
Growing Degree Days 14 (Base 50)    
Moisture  
Dew Point 49 °F    
Average Humidity 54    
Maximum Humidity 100    
Minimum Humidity 19    
Precipitation  
Precipitation 0.00 in - - ()
Sea Level Pressure  
Sea Level Pressure 30.09 in    
Wind  
Wind Speed 5 mph ()    
Max Wind Speed 17 mph    
Max Gust Speed -    
Visibility 11.2 miles    
Events      
Averages and records for this station are not official NWS values.
T = Trace of Precipitation, MM = Missing Value Source: Averaged Metar Reports

Daily Weather History Graph

Daily Weather History Graph

Search for Another Location

Airport or City:

Trip Planner

Search our weather history database for the weather conditions in past years. The results will help you decide how hot, cold, wet, or windy it might be!

Date:

Astronomy

Aug. 16, 2013 Rise Set
Actual Time 7:21 AM CDT 8:13 PM CDT
Civil Twilight 6:58 AM CDT 8:37 PM CDT
Nautical Twilight 6:30 AM CDT 9:04 PM CDT
Astronomical Twilight 6:02 AM CDT 9:32 PM CDT
Moon 4:21 PM CDT (8/16) 2:39 AM CDT (8/16)
Length of Visible Light 13h 38m
Length of Day
12h 52m
Waxing Gibbous, 75% of the Moon is Illuminated
Aug 16
Waxing Gibbous
Aug 20
Full
Aug 28
Last Quarter
Sep 5
New
Sep 12
First Quarter

Hourly Weather History & Observations

Time (CDT) Temp. Dew Point Humidity Pressure Visibility Wind Dir Wind Speed Gust Speed Precip Events Conditions
12:48 AM 62.6 °F 55.4 °F 77% 29.90 in 10.0 mi Calm Calm - N/A   Scattered Clouds
1:45 AM 60.8 °F 55.4 °F 82% 30.31 in 10.0 mi South 4.6 mph - N/A   Partly Cloudy
2:47 AM 60.8 °F 55.4 °F 82% 30.29 in 10.0 mi SE 9.2 mph - N/A   Clear
3:50 AM 57 °F 49 °F 66% 29.94 in 5 mi North 2.2 mph - -  
5:40 AM 59.0 °F 55.4 °F 88% 30.26 in 8.0 mi SE 10.4 mph - N/A   Clear
6:45 AM 57.2 °F 53.6 °F 88% 29.88 in 8.0 mi Calm Calm - N/A   Clear
6:50 AM 54 °F 46 °F 65% 30.01 in 5 mi NE 2.2 mph - -  
7:40 AM 57.2 °F 51.8 °F 82% 30.28 in 10.0 mi Calm Calm - N/A   Clear
8:55 AM 60.8 °F 53.6 °F 77% 30.28 in 10.0 mi Calm Calm - N/A   Clear
9:42 AM 62.6 °F 51.8 °F 68% 29.90 in 12.0 mi Calm Calm - N/A   Clear
9:45 AM 64 °F 55 °F 66% 30.04 in 9 mi Calm Calm - -   Haze
10:47 AM 69.8 °F 50.0 °F 49% 30.30 in 12.0 mi Calm Calm - N/A   Clear
11:42 AM 71.6 °F 48.2 °F 43% 30.29 in 15.0 mi Calm Calm - N/A   Partly Cloudy
12:43 PM 75.2 °F 44.6 °F 34% 29.83 in 15.0 mi Calm Calm - N/A   Scattered Clouds
12:45 PM 74 °F 44 °F 23% 30.00 in 9 mi NE 2.2 mph - -   Haze
1:45 PM 78.8 °F 41.0 °F 26% 30.25 in 15.0 mi ENE 5.8 mph - N/A   Partly Cloudy
2:46 PM 80.6 °F 42.8 °F 26% 30.21 in 15.0 mi NE 16.1 mph - N/A   Scattered Clouds
3:45 PM 80.6 °F 42.8 °F 26% 29.73 in 15.0 mi ENE 13.8 mph - N/A   Scattered Clouds
3:50 PM 81 °F 46 °F 19% 29.90 in 12 mi South 4.5 mph - -   Scattered Clouds
4:44 PM 82.4 °F 41.0 °F 23% 30.19 in 15.0 mi East 17.3 mph - N/A   Scattered Clouds
5:46 PM 82.4 °F 41.0 °F 23% 30.18 in 15.0 mi East 17.3 mph - N/A   Scattered Clouds
6:45 PM 80 °F 52 °F 27% 29.78 in 12 mi ENE 4.5 mph - -   Clear
6:45 PM 80.6 °F 42.8 °F 26% 29.76 in 15.0 mi East 17.3 mph - N/A   Scattered Clouds
7:40 PM 75.2 °F 50.0 °F 41% 30.20 in 15.0 mi East 17.3 mph - N/A   Mostly Cloudy
8:43 PM 69.8 °F 53.6 °F 56% 30.23 in 12.0 mi East 16.1 mph - N/A   Mostly Cloudy
9:50 PM 68.0 °F 48.2 °F 49% 29.87 in 10.0 mi SE 11.5 mph - N/A   Clear
10:40 PM 50.0 °F 50.0 °F 100% 30.30 in 8.0 mi SE 11.5 mph - N/A   Clear
11:54 PM 64.4 °F 53.6 °F 68% 30.31 in 8.0 mi SE 8.1 mph - N/A   Partly Cloudy